owner,sensor,date,latitude,longitude,vertical_datum,wind_speed,wind_to_direction,wind_speed_of_gust,qcFlag 
COMPS,ioos:station:USF.COMPS:ARP:1,2014-06-01T00:00:00Z,28.4330,-82.6670,10.0,1.66,96.43,2.64,'1111122,1111122,1111122' 
COMPS,ioos:station:USF.COMPS:ARP:1,2014-06-01T00:06:00Z,28.4330,-82.6670,10.0,1.33,80.28,2.15,'1111122,1111122,1111122' 
COMPS,ioos:station:USF.COMPS:ARP:1,2014-06-01T00:12:00Z,28.4330,-82.6670,10.0,1.11,72.1,1.86,'1111122,1111122,1111122' 
COMPS,ioos:station:USF.COMPS:ARP:1,2014-06-01T00:18:00Z,28.4330,-82.6670,10.0,0.87,72.13,1.76,'1111122,1111122,1111122' 
COMPS,ioos:station:USF.COMPS:ARP:1,2014-06-01T00:24:00Z,28.4330,-82.6670,10.0,1.45,67.31,1.76,'1111122,1111122,1111122' 
COMPS,ioos:station:USF.COMPS:ARP:1,2014-06-01T00:30:00Z,28.4330,-82.6670,10.0,1.52,87.09,1.95,'1111122,1111122,1111122' 
COMPS,ioos:station:USF.COMPS:ARP:1,2014-06-01T00:36:00Z,28.4330,-82.6670,10.0,1.77,88.85,2.35,'1111122,1111122,1111122' 
COMPS,ioos:station:USF.COMPS:ARP:1,2014-06-01T00:42:00Z,28.4330,-82.6670,10.0,1.56,91.34,2.05,'1111122,1111122,1111122' 
COMPS,ioos:station:USF.COMPS:ARP:1,2014-06-01T00:48:00Z,28.4330,-82.6670,10.0,1.3,93.6,1.95,'1111122,1111122,1111122' 
COMPS,ioos:station:USF.COMPS:ARP:1,2014-06-01T00:54:00Z,28.4330,-82.6670,10.0,1.18,108.64,2.05,'1111122,1111122,1111122' 
COMPS,ioos:station:USF.COMPS:ARP:1,2014-06-01T01:00:00Z,28.4330,-82.6670,10.0,0.92,85.86,1.66,'1111122,1111122,1111122' 
COMPS,ioos:station:USF.COMPS:ARP:1,2014-06-01T01:06:00Z,28.4330,-82.6670,10.0,1.39,64.79,1.86,'1111122,1111122,1111122' 
COMPS,ioos:station:USF.COMPS:ARP:1,2014-06-01T01:12:00Z,28.4330,-82.6670,10.0,1.34,64.35,2.45,'1111122,1111122,1111122' 
COMPS,ioos:station:USF.COMPS:ARP:1,2014-06-01T01:18:00Z,28.4330,-82.6670,10.0,2.68,72.93,3.91,'1111122,1111122,1111122' 
COMPS,ioos:station:USF.COMPS:ARP:1,2014-06-01T01:24:00Z,28.4330,-82.6670,10.0,2.32,76.53,3.23,'1111122,1111122,1111122' 
COMPS,ioos:station:USF.COMPS:ARP:1,2014-06-01T01:30:00Z,28.4330,-82.6670,10.0,1.99,87.47,2.54,'1111122,1111122,1111122' 
COMPS,ioos:station:USF.COMPS:ARP:1,2014-06-01T01:36:00Z,28.4330,-82.6670,10.0,1.93,94.66,2.74,'1111122,1111122,1111122' 
COMPS,ioos:station:USF.COMPS:ARP:1,2014-06-01T01:42:00Z,28.4330,-82.6670,10.0,2.12,111.12,3.33,'1111122,1111122,1111122' 
COMPS,ioos:station:USF.COMPS:ARP:1,2014-06-01T01:48:00Z,28.4330,-82.6670,10.0,2.13,118.68,3.13,'1111122,1111122,1111122' 
COMPS,ioos:station:USF.COMPS:ARP:1,2014-06-01T01:54:00Z,28.4330,-82.6670,10.0,2.39,111.51,3.72,'1111122,1111122,1111122' 
COMPS,ioos:station:USF.COMPS:ARP:1,2014-06-01T02:00:00Z,28.4330,-82.6670,10.0,2.63,112.64,3.82,'1111122,1111122,1111122' 
COMPS,ioos:station:USF.COMPS:ARP:1,2014-06-01T02:06:00Z,28.4330,-82.6670,10.0,2.95,114.03,4.01,'1111122,1111122,1111122' 
COMPS,ioos:station:USF.COMPS:ARP:1,2014-06-01T02:12:00Z,28.4330,-82.6670,10.0,2.68,109.12,4.01,'1111122,1111122,1111122' 
COMPS,ioos:station:USF.COMPS:ARP:1,2014-06-01T02:18:00Z,28.4330,-82.6670,10.0,2.32,115.93,3.42,'1111122,1111122,1111122' 
COMPS,ioos:station:USF.COMPS:ARP:1,2014-06-01T02:24:00Z,28.4330,-82.6670,10.0,2.59,109.36,3.33,'1111122,1111122,1111122' 
COMPS,ioos:station:USF.COMPS:ARP:1,2014-06-01T02:30:00Z,28.4330,-82.6670,10.0,2.73,113.85,3.91,'1111122,1111122,1111122' 
COMPS,ioos:station:USF.COMPS:ARP:1,2014-06-01T02:36:00Z,28.4330,-82.6670,10.0,2.44,107.84,3.42,'1111122,1111122,1111122' 
COMPS,ioos:station:USF.COMPS:ARP:1,2014-06-01T02:42:00Z,28.4330,-82.6670,10.0,2.4,110.82,3.42,'1111122,1111122,1111122' 
COMPS,ioos:station:USF.COMPS:ARP:1,2014-06-01T02:48:00Z,28.4330,-82.6670,10.0,2.39,105.77,3.33,'1111122,1111122,1111122' 
COMPS,ioos:station:USF.COMPS:ARP:1,2014-06-01T02:54:00Z,28.4330,-82.6670,10.0,2.16,111.6,3.23,'1111122,1111122,1111122' 
COMPS,ioos:station:USF.COMPS:ARP:1,2014-06-01T03:00:00Z,28.4330,-82.6670,10.0,2.14,106.8,2.74,'1111122,1111122,1111122' 
COMPS,ioos:station:USF.COMPS:ARP:1,2014-06-01T03:06:00Z,28.4330,-82.6670,10.0,2.07,106.03,3.33,'1111122,1111122,1111122' 
COMPS,ioos:station:USF.COMPS:ARP:1,2014-06-01T03:12:00Z,28.4330,-82.6670,10.0,1.99,104.55,2.93,'1111122,1111122,1111122' 
COMPS,ioos:station:USF.COMPS:ARP:1,2014-06-01T03:18:00Z,28.4330,-82.6670,10.0,1.8,107.45,2.64,'1111122,1111122,1111122' 
COMPS,ioos:station:USF.COMPS:ARP:1,2014-06-01T03:24:00Z,28.4330,-82.6670,10.0,2.04,106.6,3.03,'1111122,1111122,1111122' 
COMPS,ioos:station:USF.COMPS:ARP:1,2014-06-01T03:30:00Z,28.4330,-82.6670,10.0,2.06,107.54,3.13,'1111122,1111122,1111122' 
COMPS,ioos:station:USF.COMPS:ARP:1,2014-06-01T03:36:00Z,28.4330,-82.6670,10.0,1.75,95.81,2.54,'1111122,1111122,1111122' 
COMPS,ioos:station:USF.COMPS:ARP:1,2014-06-01T03:42:00Z,28.4330,-82.6670,10.0,1.5,95.77,2.25,'1111122,1111122,1111122' 
COMPS,ioos:station:USF.COMPS:ARP:1,2014-06-01T03:48:00Z,28.4330,-82.6670,10.0,1.7,100.39,2.64,'1111122,1111122,1111122' 
COMPS,ioos:station:USF.COMPS:ARP:1,2014-06-01T03:54:00Z,28.4330,-82.6670,10.0,1.35,106.87,2.54,'1111122,1111122,1111122' 
COMPS,ioos:station:USF.COMPS:ARP:1,2014-06-01T04:00:00Z,28.4330,-82.6670,10.0,1.61,106.2,2.45,'1111122,1111122,1111122' 
COMPS,ioos:station:USF.COMPS:ARP:1,2014-06-01T04:06:00Z,28.4330,-82.6670,10.0,1.48,102.45,2.45,'1111122,1111122,1111122' 
COMPS,ioos:station:USF.COMPS:ARP:1,2014-06-01T04:12:00Z,28.4330,-82.6670,10.0,1.68,99.54,2.25,'1111122,1111122,1111122' 
COMPS,ioos:station:USF.COMPS:ARP:1,2014-06-01T04:18:00Z,28.4330,-82.6670,10.0,1.88,99.73,2.64,'1111122,1111122,1111122' 
COMPS,ioos:station:USF.COMPS:ARP:1,2014-06-01T04:24:00Z,28.4330,-82.6670,10.0,1.63,99.47,2.54,'1111122,1111122,1111122' 
COMPS,ioos:station:USF.COMPS:ARP:1,2014-06-01T04:30:00Z,28.4330,-82.6670,10.0,1.5,98.06,2.05,'1111122,1111122,1111122' 
COMPS,ioos:station:USF.COMPS:ARP:1,2014-06-01T04:36:00Z,28.4330,-82.6670,10.0,1.56,94.84,2.45,'1111122,1111122,1111122' 
COMPS,ioos:station:USF.COMPS:ARP:1,2014-06-01T04:42:00Z,28.4330,-82.6670,10.0,1.78,102.58,2.54,'1111122,1111122,1111122' 
COMPS,ioos:station:USF.COMPS:ARP:1,2014-06-01T04:48:00Z,28.4330,-82.6670,10.0,1.65,102.84,2.25,'1111122,1111122,1111122' 
COMPS,ioos:station:USF.COMPS:ARP:1,2014-06-01T04:54:00Z,28.4330,-82.6670,10.0,1.62,95.42,2.35,'1111122,1111122,1111122' 
COMPS,ioos:station:USF.COMPS:ARP:1,2014-06-01T05:00:00Z,28.4330,-82.6670,10.0,1.55,89.3,2.45,'1111122,1111122,1111122' 
COMPS,ioos:station:USF.COMPS:ARP:1,2014-06-01T05:06:00Z,28.4330,-82.6670,10.0,1.34,84.74,2.05,'1111122,1111122,1111122' 
COMPS,ioos:station:USF.COMPS:ARP:1,2014-06-01T05:12:00Z,28.4330,-82.6670,10.0,1.16,90.92,1.56,'1111122,1111122,1111122' 
COMPS,ioos:station:USF.COMPS:ARP:1,2014-06-01T05:18:00Z,28.4330,-82.6670,10.0,1.27,94.96,1.76,'1111122,1111122,1111122' 
COMPS,ioos:station:USF.COMPS:ARP:1,2014-06-01T05:24:00Z,28.4330,-82.6670,10.0,1.08,97.62,1.66,'1111122,1111122,1111122' 
COMPS,ioos:station:USF.COMPS:ARP:1,2014-06-01T05:30:00Z,28.4330,-82.6670,10.0,1.26,94.52,2.05,'1111122,1111122,1111122' 
COMPS,ioos:station:USF.COMPS:ARP:1,2014-06-01T05:36:00Z,28.4330,-82.6670,10.0,1.34,106.2,1.95,'1111122,1111122,1111122' 
COMPS,ioos:station:USF.COMPS:ARP:1,2014-06-01T05:42:00Z,28.4330,-82.6670,10.0,1.38,96.84,1.95,'1111122,1111122,1111122' 
COMPS,ioos:station:USF.COMPS:ARP:1,2014-06-01T05:48:00Z,28.4330,-82.6670,10.0,1.21,96.21,1.66,'1111122,1111122,1111122' 
COMPS,ioos:station:USF.COMPS:ARP:1,2014-06-01T05:54:00Z,28.4330,-82.6670,10.0,1.48,99.59,2.35,'1111122,1111122,1111122' 
COMPS,ioos:station:USF.COMPS:ARP:1,2014-06-01T06:00:00Z,28.4330,-82.6670,10.0,1.76,96.0,2.74,'1111122,1111122,1111122' 
COMPS,ioos:station:USF.COMPS:ARP:1,2014-06-01T06:06:00Z,28.4330,-82.6670,10.0,1.59,95.79,2.54,'1111122,1111122,1111122' 
COMPS,ioos:station:USF.COMPS:ARP:1,2014-06-01T06:12:00Z,28.4330,-82.6670,10.0,1.29,89.14,1.86,'1111122,1111122,1111122' 
COMPS,ioos:station:USF.COMPS:ARP:1,2014-06-01T06:18:00Z,28.4330,-82.6670,10.0,1.28,89.06,2.05,'1111122,1111122,1111122' 
COMPS,ioos:station:USF.COMPS:ARP:1,2014-06-01T06:24:00Z,28.4330,-82.6670,10.0,1.46,78.93,2.25,'1111122,1111122,1111122' 
COMPS,ioos:station:USF.COMPS:ARP:1,2014-06-01T06:30:00Z,28.4330,-82.6670,10.0,2.28,77.34,3.13,'1111122,1111122,1111122' 
COMPS,ioos:station:USF.COMPS:ARP:1,2014-06-01T06:36:00Z,28.4330,-82.6670,10.0,2.27,83.73,3.23,'1111122,1111122,1111122' 
COMPS,ioos:station:USF.COMPS:ARP:1,2014-06-01T06:42:00Z,28.4330,-82.6670,10.0,2.05,87.09,2.84,'1111122,1111122,1111122' 
COMPS,ioos:station:USF.COMPS:ARP:1,2014-06-01T06:48:00Z,28.4330,-82.6670,10.0,1.83,87.46,2.54,'1111122,1111122,1111122' 
COMPS,ioos:station:USF.COMPS:ARP:1,2014-06-01T06:54:00Z,28.4330,-82.6670,10.0,2.0,84.18,2.74,'1111122,1111122,1111122' 
COMPS,ioos:station:USF.COMPS:ARP:1,2014-06-01T07:00:00Z,28.4330,-82.6670,10.0,2.07,86.98,3.13,'1111122,1111122,1111122' 
COMPS,ioos:station:USF.COMPS:ARP:1,2014-06-01T07:06:00Z,28.4330,-82.6670,10.0,1.7,88.12,2.25,'1111122,1111122,1111122' 
COMPS,ioos:station:USF.COMPS:ARP:1,2014-06-01T07:12:00Z,28.4330,-82.6670,10.0,1.94,88.51,3.62,'1111122,1111122,1111122' 
COMPS,ioos:station:USF.COMPS:ARP:1,2014-06-01T07:18:00Z,28.4330,-82.6670,10.0,1.75,90.46,2.45,'1111122,1111122,1111122' 
COMPS,ioos:station:USF.COMPS:ARP:1,2014-06-01T07:24:00Z,28.4330,-82.6670,10.0,1.84,92.81,2.64,'1111122,1111122,1111122' 
COMPS,ioos:station:USF.COMPS:ARP:1,2014-06-01T07:30:00Z,28.4330,-82.6670,10.0,1.98,96.29,2.93,'1111122,1111122,1111122' 
COMPS,ioos:station:USF.COMPS:ARP:1,2014-06-01T07:36:00Z,28.4330,-82.6670,10.0,1.75,98.95,2.74,'1111122,1111122,1111122' 
COMPS,ioos:station:USF.COMPS:ARP:1,2014-06-01T07:42:00Z,28.4330,-82.6670,10.0,1.69,99.86,2.45,'1111122,1111122,1111122' 
COMPS,ioos:station:USF.COMPS:ARP:1,2014-06-01T07:48:00Z,28.4330,-82.6670,10.0,1.72,103.83,2.35,'1111122,1111122,1111122' 
COMPS,ioos:station:USF.COMPS:ARP:1,2014-06-01T07:54:00Z,28.4330,-82.6670,10.0,1.88,108.73,2.84,'1111122,1111122,1111122' 
COMPS,ioos:station:USF.COMPS:ARP:1,2014-06-01T08:00:00Z,28.4330,-82.6670,10.0,1.77,102.2,2.35,'1111122,1111122,1111122' 
COMPS,ioos:station:USF.COMPS:ARP:1,2014-06-01T08:06:00Z,28.4330,-82.6670,10.0,1.76,104.99,2.35,'1111122,1111122,1111122' 
COMPS,ioos:station:USF.COMPS:ARP:1,2014-06-01T08:12:00Z,28.4330,-82.6670,10.0,1.77,98.07,3.03,'1111122,1111122,1111122' 
COMPS,ioos:station:USF.COMPS:ARP:1,2014-06-01T08:18:00Z,28.4330,-82.6670,10.0,1.88,95.09,2.64,'1111122,1111122,1111122' 
COMPS,ioos:station:USF.COMPS:ARP:1,2014-06-01T08:24:00Z,28.4330,-82.6670,10.0,2.03,98.44,2.84,'1111122,1111122,1111122' 
COMPS,ioos:station:USF.COMPS:ARP:1,2014-06-01T08:30:00Z,28.4330,-82.6670,10.0,2.3,100.7,3.42,'1111122,1111122,1111122' 
COMPS,ioos:station:USF.COMPS:ARP:1,2014-06-01T08:36:00Z,28.4330,-82.6670,10.0,2.16,105.11,3.03,'1111122,1111122,1111122' 
COMPS,ioos:station:USF.COMPS:ARP:1,2014-06-01T08:42:00Z,28.4330,-82.6670,10.0,2.13,101.78,3.13,'1111122,1111122,1111122' 
COMPS,ioos:station:USF.COMPS:ARP:1,2014-06-01T08:48:00Z,28.4330,-82.6670,10.0,2.19,104.23,3.13,'1111122,1111122,1111122' 
COMPS,ioos:station:USF.COMPS:ARP:1,2014-06-01T08:54:00Z,28.4330,-82.6670,10.0,1.91,96.96,2.93,'1111122,1111122,1111122' 
COMPS,ioos:station:USF.COMPS:ARP:1,2014-06-01T09:00:00Z,28.4330,-82.6670,10.0,1.81,96.92,2.84,'1111122,1111122,1111122' 
COMPS,ioos:station:USF.COMPS:ARP:1,2014-06-01T09:06:00Z,28.4330,-82.6670,10.0,1.92,106.0,2.84,'1111122,1111122,1111122' 
COMPS,ioos:station:USF.COMPS:ARP:1,2014-06-01T09:12:00Z,28.4330,-82.6670,10.0,1.78,102.89,2.45,'1111122,1111122,1111122' 
COMPS,ioos:station:USF.COMPS:ARP:1,2014-06-01T09:18:00Z,28.4330,-82.6670,10.0,1.84,100.09,2.74,'1111122,1111122,1111122' 
COMPS,ioos:station:USF.COMPS:ARP:1,2014-06-01T09:24:00Z,28.4330,-82.6670,10.0,1.79,101.27,2.84,'1111122,1111122,1111122' 
COMPS,ioos:station:USF.COMPS:ARP:1,2014-06-01T09:30:00Z,28.4330,-82.6670,10.0,2.04,104.23,2.64,'1111122,1111122,1111122' 
COMPS,ioos:station:USF.COMPS:ARP:1,2014-06-01T09:36:00Z,28.4330,-82.6670,10.0,1.94,95.85,2.64,'1111122,1111122,1111122' 
COMPS,ioos:station:USF.COMPS:ARP:1,2014-06-01T09:42:00Z,28.4330,-82.6670,10.0,2.01,101.85,2.74,'1111122,1111122,1111122' 
COMPS,ioos:station:USF.COMPS:ARP:1,2014-06-01T09:48:00Z,28.4330,-82.6670,10.0,1.93,100.85,2.54,'1111122,1111122,1111122' 
COMPS,ioos:station:USF.COMPS:ARP:1,2014-06-01T09:54:00Z,28.4330,-82.6670,10.0,2.16,101.12,3.13,'1111122,1111122,1111122' 
COMPS,ioos:station:USF.COMPS:ARP:1,2014-06-01T10:00:00Z,28.4330,-82.6670,10.0,1.97,95.72,2.64,'1111122,1111122,1111122' 
COMPS,ioos:station:USF.COMPS:ARP:1,2014-06-01T10:06:00Z,28.4330,-82.6670,10.0,2.09,103.44,2.84,'1111122,1111122,1111122' 
COMPS,ioos:station:USF.COMPS:ARP:1,2014-06-01T10:12:00Z,28.4330,-82.6670,10.0,2.26,101.62,3.13,'1111122,1111122,1111122' 
COMPS,ioos:station:USF.COMPS:ARP:1,2014-06-01T10:18:00Z,28.4330,-82.6670,10.0,2.2,99.71,3.03,'1111122,1111122,1111122' 
COMPS,ioos:station:USF.COMPS:ARP:1,2014-06-01T10:24:00Z,28.4330,-82.6670,10.0,2.04,97.2,3.03,'1111122,1111122,1111122' 
COMPS,ioos:station:USF.COMPS:ARP:1,2014-06-01T10:30:00Z,28.4330,-82.6670,10.0,2.21,94.31,3.03,'1111122,1111122,1111122' 
COMPS,ioos:station:USF.COMPS:ARP:1,2014-06-01T10:36:00Z,28.4330,-82.6670,10.0,2.2,97.04,3.13,'1111122,1111122,1111122' 
COMPS,ioos:station:USF.COMPS:ARP:1,2014-06-01T10:42:00Z,28.4330,-82.6670,10.0,2.39,93.0,3.82,'1111122,1111122,1111122' 
COMPS,ioos:station:USF.COMPS:ARP:1,2014-06-01T10:48:00Z,28.4330,-82.6670,10.0,2.02,93.47,2.93,'1111122,1111122,1111122' 
COMPS,ioos:station:USF.COMPS:ARP:1,2014-06-01T10:54:00Z,28.4330,-82.6670,10.0,2.05,93.52,3.62,'1111122,1111122,1111122' 
COMPS,ioos:station:USF.COMPS:ARP:1,2014-06-01T11:00:00Z,28.4330,-82.6670,10.0,2.12,89.1,3.13,'1111122,1111122,1111122' 
COMPS,ioos:station:USF.COMPS:ARP:1,2014-06-01T11:06:00Z,28.4330,-82.6670,10.0,2.24,86.32,2.84,'1111122,1111122,1111122' 
COMPS,ioos:station:USF.COMPS:ARP:1,2014-06-01T11:12:00Z,28.4330,-82.6670,10.0,2.13,89.46,3.13,'1111122,1111122,1111122' 
COMPS,ioos:station:USF.COMPS:ARP:1,2014-06-01T11:18:00Z,28.4330,-82.6670,10.0,2.25,91.06,3.91,'1111122,1111122,1111122' 
COMPS,ioos:station:USF.COMPS:ARP:1,2014-06-01T11:24:00Z,28.4330,-82.6670,10.0,2.29,87.13,3.82,'1111122,1111122,1111122' 
COMPS,ioos:station:USF.COMPS:ARP:1,2014-06-01T11:30:00Z,28.4330,-82.6670,10.0,2.36,91.3,3.33,'1111122,1111122,1111122' 
COMPS,ioos:station:USF.COMPS:ARP:1,2014-06-01T11:36:00Z,28.4330,-82.6670,10.0,2.15,90.07,3.33,'1111122,1111122,1111122' 
COMPS,ioos:station:USF.COMPS:ARP:1,2014-06-01T11:42:00Z,28.4330,-82.6670,10.0,2.33,91.83,3.72,'1111122,1111122,1111122' 
COMPS,ioos:station:USF.COMPS:ARP:1,2014-06-01T11:48:00Z,28.4330,-82.6670,10.0,2.33,90.66,3.72,'1111122,1111122,1111122' 
COMPS,ioos:station:USF.COMPS:ARP:1,2014-06-01T11:54:00Z,28.4330,-82.6670,10.0,2.47,91.43,3.42,'1111122,1111122,1111122' 
COMPS,ioos:station:USF.COMPS:ARP:1,2014-06-01T12:00:00Z,28.4330,-82.6670,10.0,2.37,91.79,3.82,'1111122,1111122,1111122' 
COMPS,ioos:station:USF.COMPS:ARP:1,2014-06-01T12:06:00Z,28.4330,-82.6670,10.0,2.25,91.95,3.42,'1111122,1111122,1111122' 
COMPS,ioos:station:USF.COMPS:ARP:1,2014-06-01T12:12:00Z,28.4330,-82.6670,10.0,2.27,87.19,3.23,'1111122,1111122,1111122' 
COMPS,ioos:station:USF.COMPS:ARP:1,2014-06-01T12:18:00Z,28.4330,-82.6670,10.0,2.44,87.35,3.91,'1111122,1111122,1111122' 
COMPS,ioos:station:USF.COMPS:ARP:1,2014-06-01T12:24:00Z,28.4330,-82.6670,10.0,2.5,88.73,3.82,'1111122,1111122,1111122' 
COMPS,ioos:station:USF.COMPS:ARP:1,2014-06-01T12:30:00Z,28.4330,-82.6670,10.0,2.17,90.2,3.23,'1111122,1111122,1111122' 
COMPS,ioos:station:USF.COMPS:ARP:1,2014-06-01T12:36:00Z,28.4330,-82.6670,10.0,2.51,94.38,3.91,'1111122,1111122,1111122' 
COMPS,ioos:station:USF.COMPS:ARP:1,2014-06-01T12:42:00Z,28.4330,-82.6670,10.0,2.57,85.42,4.01,'1111122,1111122,1111122' 
COMPS,ioos:station:USF.COMPS:ARP:1,2014-06-01T12:48:00Z,28.4330,-82.6670,10.0,2.7,89.17,3.72,'1111122,1111122,1111122' 
COMPS,ioos:station:USF.COMPS:ARP:1,2014-06-01T12:54:00Z,28.4330,-82.6670,10.0,2.82,86.43,3.62,'1111122,1111122,1111122' 
COMPS,ioos:station:USF.COMPS:ARP:1,2014-06-01T13:00:00Z,28.4330,-82.6670,10.0,2.94,87.21,3.72,'1111122,1111122,1111122' 
COMPS,ioos:station:USF.COMPS:ARP:1,2014-06-01T13:06:00Z,28.4330,-82.6670,10.0,2.76,92.31,5.09,'1111122,1111122,1111122' 
COMPS,ioos:station:USF.COMPS:ARP:1,2014-06-01T13:12:00Z,28.4330,-82.6670,10.0,3.04,85.09,5.39,'1111122,1111122,1111122' 
COMPS,ioos:station:USF.COMPS:ARP:1,2014-06-01T13:18:00Z,28.4330,-82.6670,10.0,2.85,88.18,4.99,'1111122,1111122,1111122' 
COMPS,ioos:station:USF.COMPS:ARP:1,2014-06-01T13:24:00Z,28.4330,-82.6670,10.0,2.77,85.59,4.5,'1111122,1111122,1111122' 
COMPS,ioos:station:USF.COMPS:ARP:1,2014-06-01T13:30:00Z,28.4330,-82.6670,10.0,2.55,95.58,4.7,'1111122,1111122,1111122' 
COMPS,ioos:station:USF.COMPS:ARP:1,2014-06-01T13:36:00Z,28.4330,-82.6670,10.0,3.03,95.13,4.5,'1111122,1111122,1111122' 
COMPS,ioos:station:USF.COMPS:ARP:1,2014-06-01T13:42:00Z,28.4330,-82.6670,10.0,2.81,99.76,4.11,'1111122,1111122,1111122' 
COMPS,ioos:station:USF.COMPS:ARP:1,2014-06-01T13:48:00Z,28.4330,-82.6670,10.0,3.11,104.04,4.41,'1111122,1111122,1111122' 
COMPS,ioos:station:USF.COMPS:ARP:1,2014-06-01T13:54:00Z,28.4330,-82.6670,10.0,3.16,91.38,4.8,'1111122,1111122,1111122' 
COMPS,ioos:station:USF.COMPS:ARP:1,2014-06-01T14:00:00Z,28.4330,-82.6670,10.0,3.29,105.91,5.87,'1111122,1111122,1111122' 
COMPS,ioos:station:USF.COMPS:ARP:1,2014-06-01T14:06:00Z,28.4330,-82.6670,10.0,3.28,103.13,4.7,'1111122,1111122,1111122' 
COMPS,ioos:station:USF.COMPS:ARP:1,2014-06-01T14:12:00Z,28.4330,-82.6670,10.0,2.65,87.56,3.82,'1111122,1111122,1111122' 
COMPS,ioos:station:USF.COMPS:ARP:1,2014-06-01T14:18:00Z,28.4330,-82.6670,10.0,2.34,93.91,4.11,'1111122,1111122,1111122' 
COMPS,ioos:station:USF.COMPS:ARP:1,2014-06-01T14:24:00Z,28.4330,-82.6670,10.0,2.55,97.23,4.8,'1111122,1111122,1111122' 
COMPS,ioos:station:USF.COMPS:ARP:1,2014-06-01T14:30:00Z,28.4330,-82.6670,10.0,3.38,105.24,5.78,'1111122,1111122,1111122' 
COMPS,ioos:station:USF.COMPS:ARP:1,2014-06-01T14:36:00Z,28.4330,-82.6670,10.0,3.22,92.2,4.8,'1111122,1111122,1111122' 
COMPS,ioos:station:USF.COMPS:ARP:1,2014-06-01T14:42:00Z,28.4330,-82.6670,10.0,3.2,83.03,4.31,'1111122,1111122,1111122' 
COMPS,ioos:station:USF.COMPS:ARP:1,2014-06-01T14:48:00Z,28.4330,-82.6670,10.0,2.68,84.78,4.01,'1111122,1111122,1111122' 
COMPS,ioos:station:USF.COMPS:ARP:1,2014-06-01T14:54:00Z,28.4330,-82.6670,10.0,3.63,80.69,5.48,'1111122,1111122,1111122' 
COMPS,ioos:station:USF.COMPS:ARP:1,2014-06-01T15:00:00Z,28.4330,-82.6670,10.0,3.98,84.08,5.68,'1111122,1111122,1111122' 
COMPS,ioos:station:USF.COMPS:ARP:1,2014-06-01T15:06:00Z,28.4330,-82.6670,10.0,3.9,93.12,5.87,'1111122,1111122,1111122' 
COMPS,ioos:station:USF.COMPS:ARP:1,2014-06-01T15:12:00Z,28.4330,-82.6670,10.0,3.83,84.02,5.39,'1111122,1111122,1111122' 
COMPS,ioos:station:USF.COMPS:ARP:1,2014-06-01T15:18:00Z,28.4330,-82.6670,10.0,3.05,92.34,6.07,'1111122,1111122,1111122' 
COMPS,ioos:station:USF.COMPS:ARP:1,2014-06-01T15:24:00Z,28.4330,-82.6670,10.0,3.4,99.35,5.78,'1111122,1111122,1111122' 
COMPS,ioos:station:USF.COMPS:ARP:1,2014-06-01T15:30:00Z,28.4330,-82.6670,10.0,3.51,84.9,5.58,'1111122,1111122,1111122' 
COMPS,ioos:station:USF.COMPS:ARP:1,2014-06-01T15:36:00Z,28.4330,-82.6670,10.0,3.91,77.14,6.37,'1111122,1111122,1111122' 
COMPS,ioos:station:USF.COMPS:ARP:1,2014-06-01T15:42:00Z,28.4330,-82.6670,10.0,3.45,94.8,5.09,'1111122,1111122,1111122' 
COMPS,ioos:station:USF.COMPS:ARP:1,2014-06-01T15:48:00Z,28.4330,-82.6670,10.0,3.31,85.54,5.19,'1111122,1111122,1111122' 
COMPS,ioos:station:USF.COMPS:ARP:1,2014-06-01T15:54:00Z,28.4330,-82.6670,10.0,3.09,103.31,5.09,'1111122,1111122,1111122' 
COMPS,ioos:station:USF.COMPS:ARP:1,2014-06-01T16:00:00Z,28.4330,-82.6670,10.0,2.97,97.55,4.41,'1111122,1111122,1111122' 
COMPS,ioos:station:USF.COMPS:ARP:1,2014-06-01T16:06:00Z,28.4330,-82.6670,10.0,2.87,78.08,4.9,'1111122,1111122,1111122' 
COMPS,ioos:station:USF.COMPS:ARP:1,2014-06-01T16:12:00Z,28.4330,-82.6670,10.0,3.21,88.31,5.68,'1111122,1111122,1111122' 
COMPS,ioos:station:USF.COMPS:ARP:1,2014-06-01T16:18:00Z,28.4330,-82.6670,10.0,3.44,88.77,5.29,'1111122,1111122,1111122' 
COMPS,ioos:station:USF.COMPS:ARP:1,2014-06-01T16:24:00Z,28.4330,-82.6670,10.0,2.73,80.28,3.82,'1111122,1111122,1111122' 
COMPS,ioos:station:USF.COMPS:ARP:1,2014-06-01T16:30:00Z,28.4330,-82.6670,10.0,3.58,85.24,5.78,'1111122,1111122,1111122' 
COMPS,ioos:station:USF.COMPS:ARP:1,2014-06-01T16:36:00Z,28.4330,-82.6670,10.0,2.53,101.54,4.8,'1111122,1111122,1111122' 
COMPS,ioos:station:USF.COMPS:ARP:1,2014-06-01T16:42:00Z,28.4330,-82.6670,10.0,3.33,84.77,4.9,'1111122,1111122,1111122' 
COMPS,ioos:station:USF.COMPS:ARP:1,2014-06-01T16:48:00Z,28.4330,-82.6670,10.0,3.94,86.23,5.78,'1111122,1111122,1111122' 
COMPS,ioos:station:USF.COMPS:ARP:1,2014-06-01T16:54:00Z,28.4330,-82.6670,10.0,3.69,77.4,5.19,'1111122,1111122,1111122' 
COMPS,ioos:station:USF.COMPS:ARP:1,2014-06-01T17:00:00Z,28.4330,-82.6670,10.0,2.89,93.71,4.5,'1111122,1111122,1111122' 
COMPS,ioos:station:USF.COMPS:ARP:1,2014-06-01T17:06:00Z,28.4330,-82.6670,10.0,3.18,87.24,4.9,'1111122,1111122,1111122' 
COMPS,ioos:station:USF.COMPS:ARP:1,2014-06-01T17:12:00Z,28.4330,-82.6670,10.0,2.39,98.96,4.11,'1111122,1111122,1111122' 
COMPS,ioos:station:USF.COMPS:ARP:1,2014-06-01T17:18:00Z,28.4330,-82.6670,10.0,2.86,86.14,5.09,'1111122,1111122,1111122' 
COMPS,ioos:station:USF.COMPS:ARP:1,2014-06-01T17:24:00Z,28.4330,-82.6670,10.0,3.24,74.86,4.9,'1111122,1111122,1111122' 
COMPS,ioos:station:USF.COMPS:ARP:1,2014-06-01T17:30:00Z,28.4330,-82.6670,10.0,3.56,86.17,5.68,'1111122,1111122,1111122' 
COMPS,ioos:station:USF.COMPS:ARP:1,2014-06-01T17:36:00Z,28.4330,-82.6670,10.0,3.74,89.15,6.37,'1111122,1111122,1111122' 
COMPS,ioos:station:USF.COMPS:ARP:1,2014-06-01T17:42:00Z,28.4330,-82.6670,10.0,3.42,97.18,4.99,'1111122,1111122,1111122' 
COMPS,ioos:station:USF.COMPS:ARP:1,2014-06-01T17:48:00Z,28.4330,-82.6670,10.0,3.78,83.1,6.37,'1111122,1111122,1111122' 
COMPS,ioos:station:USF.COMPS:ARP:1,2014-06-01T17:54:00Z,28.4330,-82.6670,10.0,3.0,81.61,4.6,'1111122,1111122,1111122' 
COMPS,ioos:station:USF.COMPS:ARP:1,2014-06-01T18:00:00Z,28.4330,-82.6670,10.0,3.71,81.9,5.87,'1111122,1111122,1111122' 
COMPS,ioos:station:USF.COMPS:ARP:1,2014-06-01T18:06:00Z,28.4330,-82.6670,10.0,3.47,91.78,6.17,'1111122,1111122,1111122' 
COMPS,ioos:station:USF.COMPS:ARP:1,2014-06-01T18:12:00Z,28.4330,-82.6670,10.0,2.79,85.41,4.5,'1111122,1111122,1111122' 
COMPS,ioos:station:USF.COMPS:ARP:1,2014-06-01T18:18:00Z,28.4330,-82.6670,10.0,4.62,67.85,6.66,'1111122,1111122,1111122' 
COMPS,ioos:station:USF.COMPS:ARP:1,2014-06-01T18:24:00Z,28.4330,-82.6670,10.0,4.21,76.56,6.46,'1111122,1111122,1111122' 
COMPS,ioos:station:USF.COMPS:ARP:1,2014-06-01T18:30:00Z,28.4330,-82.6670,10.0,3.75,73.08,6.17,'1111122,1111122,1111122' 
COMPS,ioos:station:USF.COMPS:ARP:1,2014-06-01T18:36:00Z,28.4330,-82.6670,10.0,3.26,77.74,5.78,'1111122,1111122,1111122' 
COMPS,ioos:station:USF.COMPS:ARP:1,2014-06-01T18:42:00Z,28.4330,-82.6670,10.0,3.64,91.33,5.48,'1111122,1111122,1111122' 
COMPS,ioos:station:USF.COMPS:ARP:1,2014-06-01T18:48:00Z,28.4330,-82.6670,10.0,4.61,81.27,7.74,'1111122,1111122,1111122' 
COMPS,ioos:station:USF.COMPS:ARP:1,2014-06-01T18:54:00Z,28.4330,-82.6670,10.0,4.05,73.31,5.87,'1111122,1111122,1111122' 
COMPS,ioos:station:USF.COMPS:ARP:1,2014-06-01T19:00:00Z,28.4330,-82.6670,10.0,3.59,84.8,5.19,'1111122,1111122,1111122' 
COMPS,ioos:station:USF.COMPS:ARP:1,2014-06-01T19:06:00Z,28.4330,-82.6670,10.0,3.84,82.89,5.09,'1111122,1111122,1111122' 
COMPS,ioos:station:USF.COMPS:ARP:1,2014-06-01T19:12:00Z,28.4330,-82.6670,10.0,3.67,82.87,5.97,'1111122,1111122,1111122' 
COMPS,ioos:station:USF.COMPS:ARP:1,2014-06-01T19:18:00Z,28.4330,-82.6670,10.0,3.62,83.46,6.07,'1111122,1111122,1111122' 
COMPS,ioos:station:USF.COMPS:ARP:1,2014-06-01T19:24:00Z,28.4330,-82.6670,10.0,4.77,73.61,6.37,'1111122,1111122,1111122' 
COMPS,ioos:station:USF.COMPS:ARP:1,2014-06-01T19:30:00Z,28.4330,-82.6670,10.0,6.53,73.67,10.58,'1111122,1111122,1111122' 
COMPS,ioos:station:USF.COMPS:ARP:1,2014-06-01T19:36:00Z,28.4330,-82.6670,10.0,7.17,75.46,11.07,'1111122,1111122,1111122' 